Flag for Haiti Weather past 2 weeks in Gonaïves, Haiti

Now
66 °F

Scattered clouds.


Feels Like: 66 °F
Forecast: 74 / 89 °F
Wind: No wind

Location: Santiago

Current Time: Mar 3, 2015 at 7:14:13 AM

Latest Report: Mar 3, 2015 at 7:00 AM


Visibility: 4 mi

Pressure: 30.09 "Hg

Humidity: 100%

Dew point: 66 °F

Location of GonaïvesLocation

Historic Weather in Gonaïves — Graph

°F

Gonaïves temperature yesterday

Maximum temperature yesterday: 79 °F (at 10:00 AM)
Minimum temperature yesterday: 66 °F (at 6:00 AM)
Average temperature yesterday: 72 °F

Past Weeks' High & Low Weather Summary

 TemperatureHumidityPressure
High88 °F (Feb 18, 1:00 PM)100% (Feb 17, 4:00 AM)30.21 "Hg (Feb 17, 4:00 AM)
Low64 °F (Feb 17, 4:00 AM)48% (Mar 1, 3:00 PM)29.89 "Hg (Mar 1, 8:00 PM)
Average75 °F82%30.05 "Hg
* Reported Feb 16 6:00 AM — Mar 3 6:00 AM, Gonaïves, Weather by CustomWeather, © 2015

Note: Actual official high and low records may vary slightly from our data, if they occured in-between our weather recording intervals... More about our weather records

Advertising

Gonaïves weather history for previous 24 hours

 ConditionsComfort  
Time TempWeatherWind HumidityBarometerVisibility
6:00 AM
Tue, Mar 3
66 °FPassing clouds.No wind100%30.04 "HgN/A
5:00 AM66 °FPassing clouds.No wind100%30.04 "HgN/A
4:00 AM68 °FPassing clouds.No wind100%30.01 "HgN/A
1:00 AM66 °FPassing clouds.No wind100%30.07 "HgN/A
12:00 AM66 °FPassing clouds.No wind100%30.09 "HgN/A
11:00 PM
Mon, Mar 2
66 °FFog.No wind100%30.09 "Hg0 mi
10:00 PM70 °FPassing clouds.No wind100%30.12 "HgN/A
9:00 PM70 °FPassing clouds.No wind100%30.09 "HgN/A
8:00 PM70 °FPassing clouds.No wind100%30.09 "HgN/A
7:00 PM70 °FPassing clouds.No wind100%30.07 "HgN/A
6:00 PM72 °FLight rain. Passing clouds.5 mph94%30.04 "Hg5 mi
4:00 PM75 °FScattered showers. Partly sunny.No wind83%30.04 "Hg5 mi
3:00 PM73 °FPartly sunny.5 mph89%30.04 "HgN/A
2:00 PM73 °FRain. Partly sunny.5 mph83%30.07 "Hg3 mi
1:00 PM79 °FScattered showers. Partly sunny.5 mph70%30.07 "Hg4 mi
12:00 PM73 °FScattered clouds.5 mph83%30.15 "HgN/A
11:00 AM79 °FScattered showers. Partly sunny.10 mph65%30.15 "Hg5 mi
10:00 AM79 °FPartly sunny.12 mph65%30.15 "HgN/A
9:00 AM75 °FScattered clouds.7 mph78%30.15 "HgN/A
8:00 AM73 °FPassing clouds.3 mph83%30.12 "HgN/A
7:00 AM66 °FScattered clouds.5 mph94%30.12 "HgN/A
Weather by CustomWeather, © 2015

See weather overviewHow to use our weather pages